IW0DEG Vigarano Mainarda IT current weather conditions

sailwx.info

Wind from 277 at 2 knots

Air temperature 10.6° C
Dewpoint 5.1° C

Last reported at 2019-Dec-07 13:09 UTC.
Time now 2019-Dec-07 13:40 UTC

Location: N 44°51' E 011°29'.
View on Google Maps.

See reports from other nearby stations

  
Tides and Currents Weather Stations Pressure Air Temp Water Temp Dewpoint Dewpoint Depression Visibility Wind Speed Wind Dir Waves Ship Positions
date/time (UTC)wind fromknots sea level pressurealtimeterstation pressurevisibilityair tempwater tempwave heightnotes
2019-Dec-07 13:09 277 2 10.6
2019-Dec-07 13:04 289 2 10.6
2019-Dec-07 12:57 261 2 10.6
2019-Dec-07 12:53 272 2 10.6
2019-Dec-07 12:45 288 3 10.6
2019-Dec-07 12:43 287 2 10.6
2019-Dec-07 12:35 276 2 10.6
2019-Dec-07 12:33 317 2 10.6
2019-Dec-07 12:25 262 2 10.0
2019-Dec-07 12:23 277 3 10.0
2019-Dec-07 12:17 300 2 10.0
2019-Dec-07 12:14 279 2 10.0
2019-Dec-07 12:10 260 2 10.0
2019-Dec-07 12:04 267 2 10.0
2019-Dec-07 11:57 313 3 10.0
2019-Dec-07 11:53 287 2 9.4
2019-Dec-07 11:45 300 2 9.4
2019-Dec-07 11:43 236 2 9.4
2019-Dec-07 11:35 257 2 9.4
2019-Dec-07 11:33 292 2 9.4
2019-Dec-07 11:25 282 2 9.4
2019-Dec-07 11:17 259 2 9.4
2019-Dec-07 11:13 309 3 8.9
2019-Dec-07 11:09 291 3 8.9
2019-Dec-07 11:04 260 3 8.9
2019-Dec-07 10:57 292 2 8.9
2019-Dec-07 10:53 279 2 8.9
2019-Dec-07 10:45 329 2 8.3
2019-Dec-07 10:43 309 2 8.3
2019-Dec-07 10:35 312 3 8.3
2019-Dec-07 10:33 264 3 8.3
2019-Dec-07 10:25 267 3 7.8
2019-Dec-07 10:23 293 3 8.3
2019-Dec-07 10:17 329 3 7.8
2019-Dec-07 10:14 274 4 7.8
2019-Dec-07 10:09 288 4 7.8
2019-Dec-07 10:04 281 3 7.8
2019-Dec-07 09:57 286 3 7.8
2019-Dec-07 09:53 254 4 7.8
2019-Dec-07 09:45 264 3 7.2
2019-Dec-07 09:43 292 2 7.2
2019-Dec-07 09:35 265 3 7.2
2019-Dec-07 09:33 259 4 7.2
2019-Dec-07 09:25 292 3 7.2
2019-Dec-07 09:17 296 3 7.2
2019-Dec-07 09:13 317 3 6.7
2019-Dec-07 09:09 283 3 6.7
2019-Dec-07 09:04 296 2 6.7
2019-Dec-07 08:57 283 2 6.7
2019-Dec-07 08:53 267 2 6.7
2019-Dec-07 08:45 279 1 6.1
2019-Dec-07 08:43 305 2 6.1
2019-Dec-07 08:35 303 3 6.1
2019-Dec-07 08:33 289 3 6.1
2019-Dec-07 08:25 277 3 6.1
2019-Dec-07 08:24 281 3 6.1
2019-Dec-07 08:17 263 4 6.1
2019-Dec-07 08:14 277 3 5.6
2019-Dec-07 08:09 273 2 5.6
2019-Dec-07 08:04 281 1 5.6
2019-Dec-07 07:57 267 1 5.0
2019-Dec-07 07:53 241 1 5.0
2019-Dec-07 07:45 239 1 5.0
2019-Dec-07 07:43 245 0 4.4
2019-Dec-07 07:35 287 0 4.4
2019-Dec-07 07:33 287 0 4.4
2019-Dec-07 07:25 289 1 4.4
2019-Dec-07 07:24 275 1 4.4
2019-Dec-07 07:17 271 0 4.4
2019-Dec-07 07:14 276 1 4.4
2019-Dec-07 07:09 261 0 4.4
2019-Dec-07 07:04 267 0 4.4
2019-Dec-07 06:57 259 1 4.4
2019-Dec-07 06:53 263 1 4.4
2019-Dec-07 06:45 280 1 4.4
2019-Dec-07 06:43 267 1 4.4
2019-Dec-07 06:35 280 1 4.4
2019-Dec-07 06:33 293 1 4.4
2019-Dec-07 06:25 293 1 4.4
2019-Dec-07 06:24 285 1 4.4
2019-Dec-07 06:17 265 2 4.4
2019-Dec-07 06:14 259 2 4.4
2019-Dec-07 06:09 257 2 4.4
2019-Dec-07 06:03 271 2 4.4
2019-Dec-07 05:57 264 1 4.4
2019-Dec-07 05:53 264 1 4.4
2019-Dec-07 05:45 272 0 4.4
2019-Dec-07 05:43 286 0 4.4
2019-Dec-07 05:35 237 0 4.4
2019-Dec-07 05:34 232 0 4.4
2019-Dec-07 05:25 226 0 4.4
2019-Dec-07 05:24 225 0 4.4
2019-Dec-07 05:17 232 1 4.4
2019-Dec-07 05:13 257 1 4.4
2019-Dec-07 05:09 275 1 4.4
2019-Dec-07 05:04 245 1 4.4
2019-Dec-07 04:57 261 1 4.4
2019-Dec-07 04:54 254 0 4.4
2019-Dec-07 04:45 246 1 4.4
2019-Dec-07 04:43 249 1 4.4
2019-Dec-07 04:35 262 1 4.4
2019-Dec-07 04:33 259 1 4.4
2019-Dec-07 04:25 229 0 4.4
2019-Dec-07 04:24 236 1 4.4
2019-Dec-07 04:17 234 0 4.4
2019-Dec-07 04:13 254 1 4.4
2019-Dec-07 04:09 242 1 4.4
2019-Dec-07 04:04 250 1 4.4
2019-Dec-07 03:57 275 1 4.4
2019-Dec-07 03:53 250 1 4.4
2019-Dec-07 03:45 269 1 5.0
2019-Dec-07 03:43 268 1 5.0
2019-Dec-07 03:35 284 2 5.0
2019-Dec-07 03:34 269 1 5.0
2019-Dec-07 03:25 254 2 5.0
2019-Dec-07 03:23 218 2 5.0
2019-Dec-07 03:17 250 2 5.0
2019-Dec-07 03:10 257 2 5.0
2019-Dec-07 03:03 227 1 5.0
2019-Dec-07 02:59 269 1 5.0
2019-Dec-07 02:54 235 1 5.0
2019-Dec-07 02:45 259 1 5.0
2019-Dec-07 02:43 250 1 5.0
2019-Dec-07 02:35 265 1 5.0
2019-Dec-07 02:33 266 1 5.0
2019-Dec-07 02:25 231 1 5.0
2019-Dec-07 02:23 239 1 5.0
2019-Dec-07 02:15 250 0 5.0
2019-Dec-07 02:13 223 0 5.0
2019-Dec-07 02:07 242 0 5.0
2019-Dec-07 02:04 246 0 5.0
2019-Dec-07 01:59 265 0 5.0
2019-Dec-07 01:53 263 1 5.6
2019-Dec-07 01:45 288 0 5.6
2019-Dec-07 01:44 281 0 5.6
2019-Dec-07 01:35 268 1 5.6
2019-Dec-07 01:34 261 1 5.6
2019-Dec-07 01:25 271 1 5.6
2019-Dec-07 01:23 261 1 5.6
2019-Dec-07 01:15 271 1 5.6
2019-Dec-07 01:13 263 1 5.6
2019-Dec-07 01:07 256 0 5.6
2019-Dec-07 01:03 252 0 5.6
2019-Dec-07 00:59 257 1 5.6
2019-Dec-07 00:53 275 1 5.6
2019-Dec-07 00:45 286 1 5.6
2019-Dec-07 00:44 277 1 5.6
2019-Dec-07 00:35 258 1 5.6
2019-Dec-07 00:33 257 1 5.6
2019-Dec-07 00:25 273 0 5.6
2019-Dec-07 00:23 275 0 5.6
2019-Dec-07 00:15 280 1 5.6
2019-Dec-07 00:13 278 1 5.6
2019-Dec-07 00:07 273 1 5.6
2019-Dec-07 00:03 242 1 5.6
2019-Dec-06 23:59 267 1 5.6
2019-Dec-06 23:53 275 1 5.6
2019-Dec-06 23:45 291 0 5.6
2019-Dec-06 23:43 281 0 5.6
2019-Dec-06 23:35 292 1 5.6
2019-Dec-06 23:33 298 1 5.6
2019-Dec-06 23:25 286 1 5.6
2019-Dec-06 23:24 282 0 5.6
2019-Dec-06 23:15 288 0 5.6
2019-Dec-06 23:13 273 0 5.6
2019-Dec-06 23:07 271 0 5.6
2019-Dec-06 23:04 281 0 5.6
2019-Dec-06 22:59 299 5.6
2019-Dec-06 22:54 299 5.6
2019-Dec-06 22:45 300 0 5.6
2019-Dec-06 22:43 300 0 5.6
2019-Dec-06 22:35 296 5.6
2019-Dec-06 22:34 300 0 5.6
2019-Dec-06 22:25 298 0 5.6
2019-Dec-06 22:24 305 0 5.6
2019-Dec-06 22:15 290 0 5.6
2019-Dec-06 22:14 290 0 5.6
2019-Dec-06 22:07 290 0 5.6
2019-Dec-06 22:03 280 5.6
2019-Dec-06 21:59 291 5.6
2019-Dec-06 21:54 292 5.6
2019-Dec-06 21:45 291 5.6
2019-Dec-06 21:43 290 5.6
2019-Dec-06 21:35 290 5.6
2019-Dec-06 21:33 292 5.6
2019-Dec-06 21:25 290 5.6
2019-Dec-06 21:23 290 5.6
2019-Dec-06 21:15 290 5.6
2019-Dec-06 21:13 290 5.6
2019-Dec-06 21:07 290 5.6
2019-Dec-06 21:03 290 5.6
2019-Dec-06 20:59 290 5.6
2019-Dec-06 20:54 290 5.6
2019-Dec-06 20:45 293 5.6
2019-Dec-06 20:43 293 5.6
2019-Dec-06 20:35 296 0 5.6
2019-Dec-06 20:33 296 0 5.6
2019-Dec-06 20:25 294 0 5.6
2019-Dec-06 20:23 290 0 5.6
2019-Dec-06 20:15 292 5.6
2019-Dec-06 20:14 290 5.6
2019-Dec-06 20:07 298 5.6
2019-Dec-06 20:04 298 5.6
2019-Dec-06 19:59 298 5.6
2019-Dec-06 19:53 300 5.6
2019-Dec-06 19:45 300 5.6
2019-Dec-06 19:43 300 5.6
2019-Dec-06 19:35 300 5.6
2019-Dec-06 19:33 300 5.6
2019-Dec-06 19:25 300 5.6
2019-Dec-06 19:23 300 5.6
2019-Dec-06 19:15 300 6.1
2019-Dec-06 19:13 300 6.1
2019-Dec-06 19:07 300 6.1
2019-Dec-06 19:04 300 6.1
2019-Dec-06 18:59 300 6.1
2019-Dec-06 18:54 300 6.1
2019-Dec-06 18:45 300 6.1
2019-Dec-06 18:43 300 6.1
2019-Dec-06 18:35 300 6.1
2019-Dec-06 18:33 300 6.1
2019-Dec-06 18:25 300 6.1
2019-Dec-06 18:23 300 6.1
2019-Dec-06 18:16 300 6.1
2019-Dec-06 18:13 300 6.1
2019-Dec-06 18:07 300 6.1
2019-Dec-06 18:04 300 6.1
2019-Dec-06 17:59 300 6.1
2019-Dec-06 17:53 300 6.1
2019-Dec-06 17:45 300 6.1
2019-Dec-06 17:43 300 6.1
2019-Dec-06 17:35 300 6.1
2019-Dec-06 17:33 300 6.1
2019-Dec-06 17:25 300 6.1
2019-Dec-06 17:23 300 6.1
2019-Dec-06 17:15 300 6.1
2019-Dec-06 17:13 300 6.1
2019-Dec-06 17:07 300 6.1
2019-Dec-06 17:04 301 6.1
2019-Dec-06 16:59 300 6.1
2019-Dec-06 16:53 300 6.1
2019-Dec-06 16:45 300 6.1
2019-Dec-06 16:43 300 6.1
2019-Dec-06 16:35 300 6.1
2019-Dec-06 16:33 300 6.1
2019-Dec-06 16:25 300 6.7
2019-Dec-06 16:23 300 6.7
2019-Dec-06 16:15 300 6.7
2019-Dec-06 16:13 300 6.7
2019-Dec-06 16:07 300 6.7
2019-Dec-06 16:04 301 6.7
2019-Dec-06 15:59 300 6.7
2019-Dec-06 15:54 300 6.7
2019-Dec-06 15:45 300 6.7
2019-Dec-06 15:43 300 6.7
2019-Dec-06 15:36 300 6.7
2019-Dec-06 15:33 300 6.7
2019-Dec-06 15:25 300 6.7
2019-Dec-06 15:23 300 6.7
2019-Dec-06 15:15 300 0 7.2
2019-Dec-06 15:13 300 0 7.2
2019-Dec-06 15:07 300 0 7.2
2019-Dec-06 15:04 300 0 7.2
2019-Dec-06 15:00 282 0 7.2
2019-Dec-06 14:54 282 0 7.2
2019-Dec-06 14:45 296 1 7.2
2019-Dec-06 14:43 296 1 7.2
2019-Dec-06 14:35 272 1 7.2
2019-Dec-06 14:33 301 1 7.2
2019-Dec-06 14:25 290 1 7.2
2019-Dec-06 14:23 288 1 7.2
2019-Dec-06 14:15 279 1 7.2
2019-Dec-06 14:14 276 1 7.2
2019-Dec-06 14:07 279 0 7.2
2019-Dec-06 14:04 296 0 7.2
2019-Dec-06 13:59 280 1 7.2
2019-Dec-06 13:53 273 0 7.2
2019-Dec-06 13:45 325 0 7.2
2019-Dec-06 13:44 325 0 7.2
2019-Dec-06 13:35 315 1 7.2
2019-Dec-06 13:33 311 1 7.2
2019-Dec-06 13:25 266 1 7.2
2019-Dec-06 13:23 310 1 7.2
2019-Dec-06 13:15 281 1 7.2
2019-Dec-06 13:14 260 1 7.2
2019-Dec-06 13:07 312 1 7.2
2019-Dec-06 13:04 290 1 7.2
2019-Dec-06 12:59 273 1 7.2
2019-Dec-06 12:54 286 1 7.2
2019-Dec-06 12:45 320 1 7.2
2019-Dec-06 12:43 338 1 7.2
2019-Dec-06 12:35 337 1 7.2
2019-Dec-06 12:33 312 1 7.2
2019-Dec-06 12:25 327 1 7.2
2019-Dec-06 12:23 306 1 7.2
2019-Dec-06 12:15 317 0 7.2
2019-Dec-06 12:13 323 0 7.2
2019-Dec-06 12:07 279 1 6.7
2019-Dec-06 12:04 308 2 6.7
2019-Dec-06 11:59 292 2 6.7
2019-Dec-06 11:54 296 1 6.7
2019-Dec-06 11:45 293 2 6.7
2019-Dec-06 11:43 294 2 6.7
2019-Dec-06 11:35 269 3 6.1
2019-Dec-06 11:33 315 2 6.1
2019-Dec-06 11:25 273 2 6.1
2019-Dec-06 11:23 330 2 6.1
2019-Dec-06 11:15 288 2 6.1
2019-Dec-06 11:14 284 2 6.1
2019-Dec-06 11:07 289 2 6.1
2019-Dec-06 11:04 293 2 6.1
2019-Dec-06 10:59 294 1 6.1
2019-Dec-06 10:54 301 2 6.1
2019-Dec-06 10:45 292 1 6.1
2019-Dec-06 10:43 321 1 6.1
2019-Dec-06 10:35 315 1 5.6
2019-Dec-06 10:33 298 1 5.6
2019-Dec-06 10:25 311 1 5.6
2019-Dec-06 10:23 278 1 5.6
2019-Dec-06 10:15 302 2 5.6
2019-Dec-06 10:13 259 2 5.6
2019-Dec-06 10:05 270 2 5.0
2019-Dec-06 10:03 283 2 5.0
2019-Dec-06 09:55 291 1 5.0
2019-Dec-06 09:54 299 1 5.0
2019-Dec-06 09:45 251 2 5.0
2019-Dec-06 09:44 289 2 5.0
2019-Dec-06 09:35 271 2 5.0
2019-Dec-06 09:33 281 2 5.0
2019-Dec-06 09:25 288 1 5.0
2019-Dec-06 09:23 314 1 5.0
2019-Dec-06 09:15 313 1 4.4
2019-Dec-06 09:13 277 1 4.4
2019-Dec-06 09:07 291 2 4.4
2019-Dec-06 09:04 275 1 4.4
2019-Dec-06 09:00 269 1 4.4
2019-Dec-06 08:53 322 1 4.4
2019-Dec-06 08:45 282 2 4.4
2019-Dec-06 08:43 295 2 4.4
2019-Dec-06 08:36 288 1 4.4
2019-Dec-06 08:33 298 0 4.4
2019-Dec-06 08:25 299 2 3.9
2019-Dec-06 08:23 291 2 3.9
2019-Dec-06 08:15 292 3 3.9
2019-Dec-06 08:13 290 3 3.9
2019-Dec-06 08:07 290 2 3.9
2019-Dec-06 08:04 286 1 3.9
2019-Dec-06 07:59 291 1 3.9
2019-Dec-06 07:54 293 1 3.9
2019-Dec-06 07:45 278 1 3.9
2019-Dec-06 07:43 288 1 3.9
2019-Dec-06 07:35 288 1 3.9
2019-Dec-06 07:33 278 1 3.9
2019-Dec-06 07:25 296 1 3.3
2019-Dec-06 07:23 300 0 3.3
2019-Dec-06 07:15 269 1 3.3
2019-Dec-06 07:14 267 1 3.3
2019-Dec-06 07:07 289 0 3.3
2019-Dec-06 07:04 283 0 3.3
2019-Dec-06 06:59 275 0 3.3
2019-Dec-06 06:54 291 1 3.3
2019-Dec-06 06:45 288 1 3.3
2019-Dec-06 06:43 282 1 3.3
2019-Dec-06 06:35 267 1 3.3
2019-Dec-06 06:33 272 1 3.3
2019-Dec-06 06:25 287 0 3.3
2019-Dec-06 06:23 288 0 3.3
2019-Dec-06 06:20 288 0 3.3
2019-Dec-06 06:13 281 0 3.3
2019-Dec-06 06:07 273 0 3.3
2019-Dec-06 06:04 271 0 3.3
2019-Dec-06 05:59 267 0 3.3
2019-Dec-06 05:54 266 0 3.3
2019-Dec-06 05:46 267 1 3.3
2019-Dec-06 05:43 267 1 3.3
2019-Dec-06 05:35 263 2 3.3
2019-Dec-06 05:33 263 2 3.3
2019-Dec-06 05:25 269 0 3.3
2019-Dec-06 05:23 267 0 3.3
2019-Dec-06 05:16 295 0 3.3
2019-Dec-06 05:13 299 0 3.3
2019-Dec-06 05:07 286 0 3.3
2019-Dec-06 05:04 288 1 3.3
2019-Dec-06 04:59 295 1 3.3
2019-Dec-06 04:53 287 1 3.3
2019-Dec-06 04:45 280 1 3.3
2019-Dec-06 04:43 298 2 3.3
2019-Dec-06 04:36 262 1 3.3
2019-Dec-06 04:33 269 1 3.3
2019-Dec-06 04:25 275 0 3.3
2019-Dec-06 04:23 281 1 3.3
2019-Dec-06 04:15 263 0 3.3
2019-Dec-06 04:13 281 0 3.3
2019-Dec-06 04:07 290 1 3.3
2019-Dec-06 04:04 280 1 2.8
2019-Dec-06 03:59 281 1 3.3
2019-Dec-06 03:53 272 2 2.8
2019-Dec-06 03:45 260 2 2.8
2019-Dec-06 03:43 259 2 2.8
2019-Dec-06 03:35 267 1 2.8
2019-Dec-06 03:33 271 1 2.8
2019-Dec-06 03:25 268 2 2.8
2019-Dec-06 03:23 262 2 2.8
2019-Dec-06 03:17 267 1 2.8
2019-Dec-06 03:11 265 1 2.8
2019-Dec-06 03:08 256 1 2.8
2019-Dec-06 03:03 288 0 2.8
2019-Dec-06 02:56 288 1 2.8
2019-Dec-06 02:53 287 1 2.8
2019-Dec-06 02:50 283 1 2.8
2019-Dec-06 02:43 271 1 2.8
2019-Dec-06 02:35 268 1 2.8
2019-Dec-06 02:33 271 1 2.8
2019-Dec-06 02:25 267 2 2.8
2019-Dec-06 02:23 267 1 2.8
2019-Dec-06 02:15 265 2 2.8
2019-Dec-06 02:13 264 2 2.8
2019-Dec-06 02:05 267 2 2.8
2019-Dec-06 02:04 267 2 2.8
2019-Dec-06 01:56 271 1 2.8
2019-Dec-06 01:53 291 1 2.8
2019-Dec-06 01:49 275 1 2.2
2019-Dec-06 01:43 273 0 2.2
2019-Dec-06 01:35 289 0 2.2
2019-Dec-06 01:33 290 0 2.2
2019-Dec-06 01:25 263 1 2.2
2019-Dec-06 01:23 267 0 2.2
2019-Dec-06 01:15 257 1 2.2
2019-Dec-06 01:13 252 1 2.2
2019-Dec-06 01:05 242 0 2.2
2019-Dec-06 01:03 269 0 2.2
2019-Dec-06 00:56 267 0 1.7
2019-Dec-06 00:53 236 1 1.7
2019-Dec-06 00:49 265 1 1.7
2019-Dec-06 00:43 265 0 1.7
2019-Dec-06 00:35 278 0 1.7
2019-Dec-06 00:33 271 0 1.7
2019-Dec-06 00:25 266 1 1.7
2019-Dec-06 00:23 266 1 1.7
2019-Dec-06 00:15 269 1 1.7
2019-Dec-06 00:13 266 1 1.7
2019-Dec-06 00:05 275 0 1.1
2019-Dec-06 00:03 275 0 1.1
2019-Dec-05 23:56 277 0 1.1
2019-Dec-05 23:53 277 0 1.1
2019-Dec-05 23:50 277 1 1.1
2019-Dec-05 23:43 277 1 1.7
2019-Dec-05 23:36 270 0 1.7
2019-Dec-05 23:33 274 0 1.7
2019-Dec-05 23:25 268 0 1.7
2019-Dec-05 23:23 268 1 1.7
2019-Dec-05 23:15 272 1 1.7
2019-Dec-05 23:13 273 1 1.7
2019-Dec-05 23:05 277 1 1.7
2019-Dec-05 23:03 279 0 1.7
2019-Dec-05 22:56 289 0 1.7
2019-Dec-05 22:53 289 1 1.7
2019-Dec-05 22:50 289 1 1.7
2019-Dec-05 22:43 286 0 1.7
2019-Dec-05 22:35 286 0 1.7
2019-Dec-05 22:33 280 0 1.7
2019-Dec-05 22:25 279 0 1.7
2019-Dec-05 22:23 279 0 1.7
2019-Dec-05 22:15 269 1 1.7
2019-Dec-05 22:13 269 1 1.7
2019-Dec-05 22:05 273 1 1.7
2019-Dec-05 22:03 273 1 1.7
2019-Dec-05 21:56 274 1 1.7
2019-Dec-05 21:53 274 1 1.7
2019-Dec-05 21:50 273 0 1.7
2019-Dec-05 21:43 273 0 1.7
2019-Dec-05 21:35 273 1 1.7
2019-Dec-05 21:33 273 1 1.7
2019-Dec-05 21:25 275 1 2.2
2019-Dec-05 21:24 277 1 2.2
2019-Dec-05 21:15 285 1 2.2
2019-Dec-05 21:13 290 1 2.2
2019-Dec-05 21:05 294 1 2.2
2019-Dec-05 21:03 294 1 2.2
2019-Dec-05 20:56 287 0 2.8
2019-Dec-05 20:53 298 0 2.8
2019-Dec-05 20:50 306 0 2.8
2019-Dec-05 20:44 309 0 2.8
2019-Dec-05 20:36 318 2.8
2019-Dec-05 20:33 318 0 2.8
2019-Dec-05 20:25 299 0 2.8
2019-Dec-05 20:23 298 0 2.8
2019-Dec-05 20:15 297 0 2.8
2019-Dec-05 20:13 297 0 2.8
2019-Dec-05 20:05 301 0 2.8
2019-Dec-05 20:03 302 0 2.8
2019-Dec-05 19:56 288 0 2.8
2019-Dec-05 19:53 292 0 2.8
2019-Dec-05 19:49 292 0 2.8
2019-Dec-05 19:43 294 0 2.8
2019-Dec-05 19:35 299 0 2.8
2019-Dec-05 19:34 290 0 2.8
2019-Dec-05 19:25 297 0 2.8
2019-Dec-05 19:23 296 1 2.8
2019-Dec-05 19:15 288 1 2.8
2019-Dec-05 19:14 286 1 2.8
2019-Dec-05 19:05 292 1 3.3
2019-Dec-05 19:03 279 1 3.3
2019-Dec-05 18:57 289 1 3.3
2019-Dec-05 18:53 289 0 3.3
2019-Dec-05 18:49 278 1 3.3
2019-Dec-05 18:43 275 1 3.3
2019-Dec-05 18:35 277 1 3.9
2019-Dec-05 18:33 273 1 3.9
2019-Dec-05 18:25 263 0 3.9
2019-Dec-05 18:23 263 0 3.9
2019-Dec-05 18:15 275 1 3.9
2019-Dec-05 18:13 275 1 3.9
2019-Dec-05 18:05 282 4.4
2019-Dec-05 18:03 282 4.4
2019-Dec-05 17:56 282 4.4
2019-Dec-05 17:53 282 4.4
2019-Dec-05 17:50 281 4.4
2019-Dec-05 17:44 282 4.4
2019-Dec-05 17:35 281 4.4
2019-Dec-05 17:33 282 4.4
2019-Dec-05 17:25 282 4.4
2019-Dec-05 17:24 282 4.4
2019-Dec-05 17:15 281 4.4
2019-Dec-05 17:13 281 5.0
2019-Dec-05 17:05 282 5.0
2019-Dec-05 17:03 282 5.0
2019-Dec-05 16:57 282 5.0
2019-Dec-05 16:53 281 5.0
2019-Dec-05 16:50 282 5.0
2019-Dec-05 16:43 282 5.0
2019-Dec-05 16:35 282 5.6
2019-Dec-05 16:33 282 5.6
2019-Dec-05 16:25 282 5.6
2019-Dec-05 16:23 282 5.6
2019-Dec-05 16:15 282 5.6
2019-Dec-05 16:13 282 5.6
2019-Dec-05 16:05 282 6.1
2019-Dec-05 16:03 281 6.1
2019-Dec-05 15:56 282 6.1
2019-Dec-05 15:53 281 6.1
2019-Dec-05 15:50 282 6.1
2019-Dec-05 15:44 282 6.1
2019-Dec-05 15:35 281 0 6.1
2019-Dec-05 15:33 281 0 6.1
2019-Dec-05 15:25 283 0 6.1
2019-Dec-05 15:23 286 0 6.7
2019-Dec-05 15:15 279 0 6.7
2019-Dec-05 15:13 277 0 6.7
2019-Dec-05 15:05 281 7.2
2019-Dec-05 15:04 281 7.8
2019-Dec-05 14:57 281 8.3
2019-Dec-05 14:53 069 8.3
2019-Dec-05 14:50 069 8.3
2019-Dec-05 14:44 044 8.3
2019-Dec-05 14:35 045 8.3
2019-Dec-05 14:34 045 8.3
2019-Dec-05 14:25 045 8.3
2019-Dec-05 14:23 045 0 8.3
2019-Dec-05 14:15 044 1 8.3
2019-Dec-05 14:13 040 1 8.3
2019-Dec-05 14:05 009 0 8.3
2019-Dec-05 14:04 332 0 8.3
2019-Dec-05 13:56 269 0 8.3
2019-Dec-05 13:53 178 0 8.3
2019-Dec-05 13:49 169 8.3
2019-Dec-05 13:43 098 0 8.3
2019-Dec-05 13:35 095 0 7.8
2019-Dec-05 13:33 083 0 7.8
2019-Dec-05 13:25 303 0 8.3
2019-Dec-05 13:23 305 0 8.3
2019-Dec-05 13:15 005 1 7.8
2019-Dec-05 13:13 046 1 7.8
2019-Dec-05 13:05 022 0 8.3
2019-Dec-05 13:03 078 0 8.3